This is the latest recevied weather packets stored in our database for station/object W5ITZ. If no packets are shown the sender has not sent any weather packets the latest 10 day(s).
| Time | Temp. | Humidity | Pressure | Rain* | Wind** | Luminosity | Snow |
|---|---|---|---|---|---|---|---|
| 1787778613 | 36.67° C | 46% | 1013.7 hPa | 0 mm | - | 664 W/m² | - |
| 1787778309 | 36.67° C | 49% | 1013.7 hPa | 0 mm | - | 669 W/m² | - |
| 1787778006 | 36.67° C | 47% | 1013.9 hPa | 0 mm | - | 673 W/m² | - |
| 1787777698 | 36.67° C | 46% | 1013.7 hPa | 0 mm | - | 696 W/m² | - |
| 1787777395 | 36.67° C | 47% | 1014 hPa | 0 mm | - | 688 W/m² | - |
| 1787777094 | 36.67° C | 47% | 1013.8 hPa | 0 mm | - | 694 W/m² | - |
| 1787776793 | 37.22° C | 47% | 1013.8 hPa | 0 mm | - | 706 W/m² | - |
| 1787776492 | 37.22° C | 42% | 1014.1 hPa | 0 mm | - | 718 W/m² | - |
| 1787776190 | 37.22° C | 41% | 1014.2 hPa | 0 mm | - | 738 W/m² | - |
| 1787775884 | 37.22° C | 40% | 1014.2 hPa | 0 mm | - | 759 W/m² | - |
| 1787775579 | 37.22° C | 41% | 1014.5 hPa | 0 mm | - | 764 W/m² | - |
| 1787775278 | 37.22° C | 42% | 1014.4 hPa | 0 mm | - | 791 W/m² | - |
| 1787774972 | 36.67° C | 41% | 1014.5 hPa | 0 mm | - | 816 W/m² | - |
| 1787774672 | 36.67° C | 41% | 1014.5 hPa | 0 mm | - | 831 W/m² | - |
| 1787774370 | 36.67° C | 41% | 1014.5 hPa | 0 mm | - | 847 W/m² | - |
| 1787774066 | 36.67° C | 43% | 1014.7 hPa | 0 mm | - | 849 W/m² | - |
| 1787773764 | 37.22° C | 42% | 1014.9 hPa | 0 mm | - | 851 W/m² | - |
| 1787773459 | 36.67° C | 42% | 1014.9 hPa | 0 mm | - | 860 W/m² | - |
| 1787773155 | 37.22° C | 44% | 1014.9 hPa | 0 mm | - | 859 W/m² | - |
| 1787772850 | 36.67° C | 44% | 1014.8 hPa | 0 mm | - | 874 W/m² | - |
| 1787772549 | 36.67° C | 44% | 1015 hPa | 0 mm | - | 879 W/m² | - |
| 1787772243 | 36.67° C | 44% | 1015.1 hPa | 0 mm | - | 878 W/m² | - |
| 1787771942 | 37.22° C | 43% | 1015.2 hPa | 0 mm | - | 902 W/m² | - |
| 1787771637 | 36.67° C | 45% | 1015.2 hPa | 0 mm | - | 911 W/m² | - |
| 1787771331 | 36.11° C | 46% | 1015.3 hPa | 0 mm | - | 898 W/m² | - |
* Rain latest hour (hover to see other rain measurements)
** Current wind speed in m/s (hover to see current wind gust speed)